Weather in New Glasgow

Canada     45°35′20″N   62°38′39″W
temp.,
°C
wind,
m/s
gust,
m/s
humid.,
%
clouds,
%
prec.,
mm/h
press.,
hPa
HPBL,
m
22 september, wed
wed2200:00+12ssw412830 0.0 1030346
03:00+11ssw311935 0.0 1029297
06:00+11ssw3119715 0.0 1028271
09:00+15sw410781 0.0 1027420
12:00+21sw57468 0.0 1026851
15:00+24sw56385 0.0 10231233
18:00+21ssw475340 0.0 1023507
21:00+13ssw398950 0.0 1025186
23 september, thu
thu2300:00+12ssw399714 0.0 1025192
03:00+12ssw3109793 0.0 1024218
06:00+12sw31097100 0.0 1024204
09:00+16sw498637 0.0 1024315
12:00+22sw455552 0.0 1024874
15:00+25sw454450 0.0 10231330
18:00+22sw236176 0.0 102394
21:00+15ssw389234 0.0 1025157
24 september, fri
fri2400:00+14sw389523 0.0 1026141
03:00+13sw229699 0.0 102533
06:00+13sw11945 0.0 102510
09:00+17ese00780 0.0 1026138
12:00+24e115414 0.0 10251205
15:00+25e124629 0.0 10241737
18:00+20ene2469100 0.0 1024184
21:00+16ne119436 0.0 102520
25 september, sat
sat2500:00+14s259722 0.0 102489
03:00+15sse2994100 0.0 1024247
06:00+16sse31095100 0.0 1023341
09:00+18s5118196 0.0 1023554
12:00+22s6960100 0.0 10231167
15:00+22s695969 0.0 10221258
18:00+20s5107164 0.0 1021833
21:00+16s4129614 0.0 1022449
26 september, sun
sun2600:00+16s4129624 0.0 1021458
03:00+17s4119898 0.0 1020460
06:00+19s51085100 0.0 1019609
09:00+19s41088100 0.0 1018667
12:00+22sse61176100 0.0 1016875
15:00+23sse7116895 0.2 10141180
18:00+17sse71497100 4.3 1012945
21:00+17se51298100 14.5 1009878